NOAA 16 DEB

Satellite information

Favourite Embed

Satellite Type and Status

DEBRISIN ORBIT

Key statistics

Satellite NOAA 16 DEB at a glance.

Uptime

9115

Days in orbit

Revolutions

≈ 14.5

Per day

Orbit

SSO

Sun Synchronous Orbit

Inclination

99.1

Latest

Satellite identification and parameters

Extended collection of information and parameters for NOAA 16 DEB.

Object identification

Identified? True

Debris? True

Object name: NOAA 16 DEB

International designator: 2000-055RP

Object number (NORAD): 42371

Object ID (CCSDS): 42371

Country: UNITED STATES OF AMERICA (US)

Current information (Y/N): Y

RCS size: SMALL

Orbital parameters

Period: 99.144 minutes

Inclination: 99.0691 deg

SMA: 7095.863 km

Apoapsis: 740.873 km

Periapsis: 694.583 km

RAAN: 145.6674 deg

Eccentricy: 0.00326176

Argument of periapsis: 224.7652 deg

Mean anomaly: 135.0909 deg

Mean motion: 14.52429056 rev/day

Mean motion (dot): 0.00015404 rev/day2

B* drag term: 0.0037571119 1/REarth

Two-line elements (TLE)

Creation date: Aug. 31, 2025, 2:26 a.m.

Reference frame: TEME

Reference center: EARTH

Epoch: Aug. 30, 2025, 10:46 p.m. UTC

TLE line 0: 0 NOAA 16 DEB

TLE line 1: 1 42371U 00055RP 25242.94924461 .00015404 00000-0 37571-2 0 9990

TLE line 2: 2 42371 99.0691 145.6674 0032618 224.7652 135.0909 14.52429056500307

Live tracking on map

Real-time ground track for satellite NOAA 16 DEB.

In-orbit conjunctions

A list of the most updated potential collisions computed for object NOAA 16 DEB.

Target Orbit TCA Probability of collision Miss distance Type
ESSA 1 (OT-3) SSO 2025-05-28 19:17:28 0.0001198616 488.0 (m) PAYLOAD
METEOR 2-5 DEB LEO 2024-11-11 03:50:50 0.0002203329 307.0 (m) DEBRIS

Associated space launch

The NOAA K, L and M POES satellites begin the fifth generation of improved environmental monitoring in support of NOAA missions. The instrument payload has significant improvements and additions/deletions. The instrument changes have effected the spacecraft subsystems and data formats.

NOAA 16 DEB was lifted into orbit during the mission ‘Titan II SLV | NOAA 16’, on board a Titan II SLV space rocket.

The launch took place on Sept. 21, 2000, 10:22 a.m. from Space Launch Complex 4W.

For more information about the launch, click the button.

Launch to space Titan II SLV | NOAA 16
Titan II SLV | NOAA 16

Agency: N/A

Status: Launch Successful

Launch date: Sept. 21, 2000, 10:22 a.m. UTC

Rocket: Titan II SLV

Launch pad: Space Launch Complex 4W

Location: Vandenberg SFB, CA, USA

...

Latest news about this satellite

There are no fresh news available about this satellite. Check back as we update our databases every day.


Newsletter sign-up

Weekly statistics, charts and insights to help you stay on top of the space industry.